SCP
0 0 0 0 0 0 0 0 0 0 0 0 0 0 0 0 0 0 0 0 0 0
0 0 0 0 0 0 0 0 0 0 0 0 0 0 0 0 0 0 0 0 0 0
0 0 0 0 0 0 0 0 0 0 0 0 0 0 0 0 0 0 0 0 0 0
0 0 0 0 0 0 0 0 0 0 0 0 0 0 0 0 0 0 0 0 0 0
0 0 0 0 0 0 0 0 0 0 0 0 0 0 0 0 0 0 0 0 0 0
0 0 0 0 0 0 0 0 0 0 0 0 0 0 0 0 0 0 0 0 0 0
0 0 0 0 0 0 0 0 0 0 0 0 0 0 0 0 0 0 0 0 0 0
0 0 0 0 0 0 0 0 0 0 0 0 0 0 0 0 0 0 0 0 0 0
0 0 0 0 0 0 0 0 0 0 0 0 0 0 0 0 0 0 0 0 0 0
0 0 0 0 0 0 0 0 0 0 0 0 0 0 0 0 0 0 0 0 0 0
0 0 0 0 0 0 0 0 0 0 0 0 0 0 0 0 0 0 0 0 0 0
0 0 0 0 0 0 0 0 0 0 0 0 0 0 0 0 0 0 0 0 0 0
0 0 0 0 0 0 0 0 0 0 0 0 0 0 0 0 0 0 0 0 0 0
0 0 0 0 0 0 0 0 0 0 0 0 0 0 0 0 0 0 0 0 0 0
Wind_Speed_500mb
33 30 20 23 20 19 10 19 16 5 3 2 3 4 11 3 7 9 14 23 19 24
32 24 17 23 26 23 22 15 16 8 7 3 2 6 7 8 4 7 13 10 25 19
38 32 33 28 24 19 25 15 18 12 7 5 3 6 7 9 9 7 9 9 17 21
40 35 30 23 29 28 25 23 13 12 9 5 4 7 11 13 2 4 9 15 15 20
38 35 28 23 23 21 18 18 16 13 10 8 5 10 7 4 4 6 11 15 18 22
39 36 31 29 23 22 19 15 15 13 11 8 8 8 9 11 12 14 17 21 26 32
41 38 32 29 27 23 21 18 16 15 11 11 14 11 11 12 16 20 23 28 35 40
42 36 30 30 26 24 22 19 20 14 14 14 16 17 23 14 20 27 31 34 37 41
43 37 34 31 29 24 23 21 19 19 17 16 12 18 18 27 32 31 37 42 44 44
41 36 35 33 30 27 23 22 21 19 18 18 21 25 26 25 28 35 42 43 43 42
43 39 35 33 30 26 22 23 20 20 20 20 22 24 24 27 33 41 44 45 46 42
46 42 38 35 33 30 23 21 20 20 19 21 17 18 26 33 40 45 36 39 33 22
44 44 41 33 35 31 24 20 20 19 16 16 17 24 28 30 36 24 28 35 31 26
49 43 39 33 34 26 20 19 19 20 20 19 25 25 33 31 23 27 30 25 20 19
Wind_Direction_500mb
187 189 190 146 203 180 199 211 247 251 117 330 69 329 64 355 30 39 25 40 33 23
178 175 182 180 193 178 189 243 249 172 208 270 193 214 197 321 42 52 46 341 13 16
172 173 195 217 176 197 192 178 175 183 219 245 241 204 190 274 42 45 32 6 348 2
179 183 203 197 170 201 211 193 194 190 226 237 277 209 227 191 325 344 326 342 344 332
185 188 191 186 188 195 195 186 186 205 209 226 228 224 197 274 255 290 303 305 307 312
187 189 190 189 185 184 174 178 189 209 211 213 237 238 232 240 261 275 283 293 298 300
191 192 192 186 188 185 186 201 199 206 221 222 236 242 253 263 281 294 299 296 298 304
194 192 189 187 193 193 196 202 218 220 222 233 238 246 247 252 262 282 293 301 299 300
192 189 189 190 199 195 204 207 215 220 226 239 252 247 246 267 283 292 303 309 311 310
193 191 191 193 198 202 210 214 217 222 235 240 243 265 279 283 290 301 309 315 316 315
191 192 194 196 200 207 213 215 225 232 242 249 243 254 278 296 301 308 315 314 309 311
191 188 195 197 204 210 214 226 229 240 244 252 248 263 288 296 304 310 317 322 295 303
193 192 195 197 207 212 222 223 234 240 252 244 248 264 270 292 305 311 309 324 311 291
192 186 197 199 211 221 225 222 244 223 243 257 259 272 309 289 316 319 324 318 305 329
Wind_Speed_850mb
33 30 20 23 20 19 10 19 16 5 3 2 3 4 11 3 7 9 14 23 19 24
32 24 17 23 26 23 22 15 16 8 7 3 2 6 7 8 4 7 13 10 25 19
38 32 33 28 24 19 25 15 18 12 7 5 3 6 7 9 9 7 9 9 17 21
40 35 30 23 29 28 25 23 13 12 9 5 4 7 11 13 2 4 9 15 15 20
38 35 28 23 23 21 18 18 16 13 10 8 5 10 7 4 4 6 11 15 18 22
39 36 31 29 23 22 19 15 15 13 11 8 8 8 9 11 12 14 17 21 26 32
41 38 32 29 27 23 21 18 16 15 11 11 14 11 11 12 16 20 23 28 35 40
42 36 30 30 26 24 22 19 20 14 14 14 16 17 23 14 20 27 31 34 37 41
43 37 34 31 29 24 23 21 19 19 17 16 12 18 18 27 32 31 37 42 44 44
41 36 35 33 30 27 23 22 21 19 18 18 21 25 26 25 28 35 42 43 43 42
43 39 35 33 30 26 22 23 20 20 20 20 22 24 24 27 33 41 44 45 46 42
46 42 38 35 33 30 23 21 20 20 19 21 17 18 26 33 40 45 36 39 33 22
44 44 41 33 35 31 24 20 20 19 16 16 17 24 28 30 36 24 28 35 31 26
49 43 39 33 34 26 20 19 19 20 20 19 25 25 33 31 23 27 30 25 20 19
Wind_Direction_850mb
187 189 190 146 203 180 199 211 247 251 117 330 69 329 64 355 30 39 25 40 33 23
178 175 182 180 193 178 189 243 249 172 208 270 193 214 197 321 42 52 46 341 13 16
172 173 195 217 176 197 192 178 175 183 219 245 241 204 190 274 42 45 32 6 348 2
179 183 203 197 170 201 211 193 194 190 226 237 277 209 227 191 325 344 326 342 344 332
185 188 191 186 188 195 195 186 186 205 209 226 228 224 197 274 255 290 303 305 307 312
187 189 190 189 185 184 174 178 189 209 211 213 237 238 232 240 261 275 283 293 298 300
191 192 192 186 188 185 186 201 199 206 221 222 236 242 253 263 281 294 299 296 298 304
194 192 189 187 193 193 196 202 218 220 222 233 238 246 247 252 262 282 293 301 299 300
192 189 189 190 199 195 204 207 215 220 226 239 252 247 246 267 283 292 303 309 311 310
193 191 191 193 198 202 210 214 217 222 235 240 243 265 279 283 290 301 309 315 316 315
191 192 194 196 200 207 213 215 225 232 242 249 243 254 278 296 301 308 315 314 309 311
191 188 195 197 204 210 214 226 229 240 244 252 248 263 288 296 304 310 317 322 295 303
193 192 195 197 207 212 222 223 234 240 252 244 248 264 270 292 305 311 309 324 311 291
192 186 197 199 211 221 225 222 244 223 243 257 259 272 309 289 316 319 324 318 305 329